N91HK KPBI-MYAM

Flight info

Callsign N91HK
Flight time 0h 27m
Altitude 21000
Route MIXAE4 HALBI DCT RUDPE
Aircraft CL60/M-SADE3FGHIJ3J4J7P2RWXY/HB1D1

Departure

Time 2026-04-29 20:42
Airport Palm Beach International Airport (KPBI)

Arrival

Time 2026-04-29 21:09
Airport Leonard M. Thompson International Airport (MYAM)
Time Latitude Longitude Altitude Speed Heading
2026-04-29 20:27 26.67940 -80.09515 20 ft 0 kts 96°
2026-04-29 20:39 26.67940 -80.09514 20 ft 0 kts 96°
2026-04-29 20:39 26.67983 -80.09478 21 ft 14 kts 21°
2026-04-29 20:39 26.68052 -80.09384 22 ft 16 kts 356°
2026-04-29 20:40 26.68152 -80.09518 21 ft 30 kts 278°
2026-04-29 20:40 26.68166 -80.09839 21 ft 54 kts 272°
2026-04-29 20:40 26.68182 -80.10208 21 ft 41 kts 272°
2026-04-29 20:40 26.68195 -80.10510 21 ft 38 kts 273°
2026-04-29 20:41 26.68210 -80.10780 23 ft 20 kts 275°
2026-04-29 20:41 26.68293 -80.10834 25 ft 15 kts 21°
2026-04-29 20:41 26.68317 -80.10722 24 ft 22 kts 94°
2026-04-29 20:41 26.68292 -80.10213 22 ft 115 kts 94°
2026-04-29 20:42 26.68241 -80.09030 239 ft 177 kts 97°
2026-04-29 20:42 26.68101 -80.07620 1151 ft 196 kts 100°
2026-04-29 20:42 26.67960 -80.06046 2007 ft 211 kts 86°
2026-04-29 20:42 26.68447 -80.04398 2242 ft 226 kts 65°
2026-04-29 20:43 26.69154 -80.02835 2295 ft 215 kts 65°
2026-04-29 20:43 26.69819 -80.01359 2351 ft 213 kts 66°
2026-04-29 20:43 26.70490 -79.99860 2393 ft 212 kts 65°
2026-04-29 20:43 26.71146 -79.98389 2439 ft 212 kts 66°
2026-04-29 20:44 26.71634 -79.96846 2472 ft 210 kts 91°
2026-04-29 20:44 26.71482 -79.95215 2518 ft 206 kts 101°
2026-04-29 20:44 26.71297 -79.93728 3347 ft 189 kts 99°
2026-04-29 20:44 26.71120 -79.92283 4443 ft 192 kts 99°
2026-04-29 20:45 26.70942 -79.90825 5514 ft 196 kts 98°
2026-04-29 20:45 26.70755 -79.89284 6425 ft 213 kts 98°
2026-04-29 20:45 26.70536 -79.87470 6834 ft 258 kts 97°
2026-04-29 20:45 26.70273 -79.85317 6944 ft 291 kts 97°
2026-04-29 20:46 26.69999 -79.83057 6982 ft 291 kts 97°
2026-04-29 20:46 26.69847 -79.80703 7338 ft 314 kts 91°
2026-04-29 20:46 26.69755 -79.78315 8823 ft 308 kts 91°
2026-04-29 20:46 26.69659 -79.75959 10321 ft 304 kts 90°
2026-04-29 20:47 26.69562 -79.73495 10665 ft 340 kts 90°
2026-04-29 20:47 26.69457 -79.70688 10835 ft 375 kts 91°
2026-04-29 20:47 26.69340 -79.67686 11421 ft 393 kts 91°
2026-04-29 20:47 26.69220 -79.64593 12226 ft 401 kts 90°
2026-04-29 20:48 26.69099 -79.61475 13094 ft 406 kts 90°
2026-04-29 20:48 26.68978 -79.58289 13959 ft 411 kts 90°
2026-04-29 20:48 26.68858 -79.55061 14784 ft 417 kts 90°
2026-04-29 20:48 26.68736 -79.51766 15673 ft 421 kts 90°
2026-04-29 20:49 26.68617 -79.48502 16516 ft 425 kts 90°
2026-04-29 20:49 26.68495 -79.45138 17298 ft 430 kts 90°
2026-04-29 20:49 26.68374 -79.41761 17982 ft 437 kts 90°
2026-04-29 20:49 26.68248 -79.38279 18712 ft 442 kts 90°
2026-04-29 20:50 26.68119 -79.34822 19443 ft 446 kts 91°
2026-04-29 20:50 26.67981 -79.31473 20017 ft 452 kts 92°
2026-04-29 20:50 26.67841 -79.28067 20585 ft 456 kts 92°
2026-04-29 20:50 26.67689 -79.24401 20925 ft 467 kts 92°
2026-04-29 20:51 26.67536 -79.20683 21002 ft 482 kts 92°
2026-04-29 20:51 26.67377 -79.16862 21002 ft 491 kts 92°
2026-04-29 20:51 26.67167 -79.13032 20994 ft 491 kts 94°
2026-04-29 20:51 26.66836 -79.09240 20992 ft 488 kts 96°
2026-04-29 20:52 26.66484 -79.05439 21012 ft 487 kts 95°
2026-04-29 20:52 26.66139 -79.01664 20998 ft 488 kts 95°
2026-04-29 20:52 26.65805 -78.97887 21001 ft 488 kts 95°
2026-04-29 20:52 26.65470 -78.94111 21014 ft 488 kts 95°
2026-04-29 20:53 26.65129 -78.90354 21023 ft 487 kts 95°
2026-04-29 20:53 26.64783 -78.86550 21064 ft 487 kts 95°
2026-04-29 20:53 26.64440 -78.82788 21054 ft 488 kts 95°
2026-04-29 20:53 26.64094 -78.78989 21054 ft 488 kts 95°
2026-04-29 20:54 26.63406 -78.71438 21050 ft 487 kts 95°
2026-04-29 20:54 26.63058 -78.67623 21053 ft 487 kts 95°
2026-04-29 20:54 26.62715 -78.63867 21050 ft 488 kts 95°
2026-04-29 20:55 26.62370 -78.60103 21048 ft 487 kts 95°
2026-04-29 20:55 26.62022 -78.56312 21050 ft 487 kts 95°
2026-04-29 20:55 26.61675 -78.52529 21047 ft 487 kts 95°
2026-04-29 20:55 26.61330 -78.48778 21052 ft 487 kts 95°
2026-04-29 20:56 26.60981 -78.45007 21048 ft 487 kts 95°
2026-04-29 20:56 26.60628 -78.41186 21046 ft 485 kts 96°
2026-04-29 20:56 26.60282 -78.37497 20646 ft 482 kts 95°
2026-04-29 20:56 26.59934 -78.33762 20096 ft 478 kts 96°
2026-04-29 20:57 26.59598 -78.30154 19506 ft 471 kts 95°
2026-04-29 20:57 26.59257 -78.26518 18832 ft 465 kts 95°
2026-04-29 20:57 26.58925 -78.22970 18250 ft 460 kts 95°
2026-04-29 20:57 26.58591 -78.19428 17636 ft 456 kts 95°
2026-04-29 20:58 26.58263 -78.15955 17042 ft 450 kts 95°
2026-04-29 20:58 26.57935 -78.12492 16420 ft 447 kts 95°
2026-04-29 20:58 26.57607 -78.09026 15823 ft 442 kts 95°
2026-04-29 20:58 26.57286 -78.05653 15243 ft 439 kts 95°
2026-04-29 20:59 26.56959 -78.02232 14655 ft 435 kts 95°
2026-04-29 20:59 26.56639 -77.98893 14085 ft 431 kts 95°
2026-04-29 20:59 26.56323 -77.95603 13518 ft 428 kts 95°
2026-04-29 20:59 26.56004 -77.92293 12949 ft 425 kts 95°
2026-04-29 21:00 26.55693 -77.89069 12402 ft 421 kts 95°
2026-04-29 21:00 26.55380 -77.85847 11844 ft 416 kts 95°
2026-04-29 21:00 26.55065 -77.82604 11288 ft 412 kts 95°
2026-04-29 21:00 26.54762 -77.79484 10752 ft 397 kts 95°
2026-04-29 21:01 26.54472 -77.76481 10238 ft 379 kts 96°
2026-04-29 21:01 26.54204 -77.73653 9754 ft 363 kts 96°
2026-04-29 21:01 26.53944 -77.70898 9284 ft 350 kts 96°
2026-04-29 21:01 26.53696 -77.68243 8825 ft 343 kts 96°
2026-04-29 21:02 26.53450 -77.65630 8376 ft 342 kts 96°
2026-04-29 21:02 26.53199 -77.62976 7917 ft 340 kts 96°
2026-04-29 21:02 26.52947 -77.60337 7465 ft 337 kts 96°
2026-04-29 21:02 26.52699 -77.57757 7023 ft 335 kts 97°
2026-04-29 21:03 26.52450 -77.55172 6579 ft 333 kts 97°
2026-04-29 21:03 26.52201 -77.52605 6142 ft 331 kts 97°
2026-04-29 21:03 26.51957 -77.50097 5712 ft 329 kts 97°
2026-04-29 21:03 26.51709 -77.47559 5282 ft 327 kts 97°
2026-04-29 21:04 26.51462 -77.45046 4850 ft 325 kts 98°
2026-04-29 21:04 26.51217 -77.42556 4426 ft 323 kts 98°
2026-04-29 21:04 26.50973 -77.40086 3998 ft 320 kts 98°
2026-04-29 21:04 26.50729 -77.37628 3574 ft 317 kts 98°
2026-04-29 21:05 26.50489 -77.35197 3161 ft 307 kts 98°
2026-04-29 21:05 26.50261 -77.32869 2761 ft 295 kts 99°
2026-04-29 21:05 26.50046 -77.30655 2399 ft 283 kts 98°
2026-04-29 21:05 26.50074 -77.28529 2307 ft 263 kts 83°
2026-04-29 21:06 26.50355 -77.26585 2298 ft 243 kts 86°
2026-04-29 21:06 26.50491 -77.24766 2293 ft 224 kts 90°
2026-04-29 21:06 26.50564 -77.22974 2263 ft 241 kts 91°
2026-04-29 21:06 26.50619 -77.21080 1980 ft 239 kts 91°
2026-04-29 21:07 26.50669 -77.19264 1701 ft 233 kts 91°
2026-04-29 21:07 26.50719 -77.17471 1311 ft 215 kts 91°
2026-04-29 21:07 26.50766 -77.15964 1157 ft 177 kts 91°
2026-04-29 21:07 26.50805 -77.14652 911 ft 156 kts 91°
2026-04-29 21:08 26.50842 -77.13538 747 ft 138 kts 91°
2026-04-29 21:08 26.50871 -77.12475 532 ft 133 kts 92°
2026-04-29 21:08 26.50896 -77.11443 372 ft 132 kts 91°
2026-04-29 21:08 26.50951 -77.10425 202 ft 127 kts 90°
2026-04-29 21:09 26.50988 -77.09448 21 ft 121 kts 91°
2026-04-29 21:09 26.51009 -77.08677 16 ft 52 kts 90°
2026-04-29 21:09 26.51016 -77.08549 17 ft 11 kts 75°
2026-04-29 21:09 26.51095 -77.08530 17 ft 15 kts 359°
2026-04-29 21:10 26.51142 -77.08451 17 ft 15 kts 83°
2026-04-29 21:10 26.51259 -77.08427 16 ft 24 kts 352°
2026-04-29 21:10 26.51336 -77.08411 16 ft 8 kts 92°
2026-04-29 21:10 26.51336 -77.08398 16 ft 0 kts 91°
2026-04-29 21:18 26.51329 -77.08386 16 ft 6 kts 149°
2026-04-29 21:18 26.51216 -77.08372 17 ft 17 kts 168°
2026-04-29 21:19 26.51140 -77.08392 17 ft 17 kts 267°
2026-04-29 21:19 26.51134 -77.08653 15 ft 42 kts 269°
2026-04-29 21:19 26.51125 -77.09008 10 ft 46 kts 269°
2026-04-29 21:19 26.51118 -77.09331 12 ft 34 kts 268°
2026-04-29 21:20 26.51082 -77.09476 14 ft 12 kts 186°
2026-04-29 21:20 26.50998 -77.09470 11 ft 11 kts 148°
2026-04-29 21:20 26.50996 -77.09206 9 ft 82 kts 88°
2026-04-29 21:20 26.51026 -77.08205 164 ft 162 kts 86°
2026-04-29 21:21 26.51477 -77.06866 616 ft 213 kts 56°
2026-04-29 21:21 26.52490 -77.05569 638 ft 218 kts 43°
2026-04-29 21:21 26.53754 -77.04627 507 ft 210 kts 23°
2026-04-29 21:21 26.55164 -77.04298 423 ft 204 kts 359°
2026-04-29 21:22 26.56588 -77.04446 333 ft 206 kts 352°
2026-04-29 21:22 26.58018 -77.04716 348 ft 206 kts 349°
2026-04-29 21:22 26.59442 -77.05066 421 ft 208 kts 347°
2026-04-29 21:22 26.60862 -77.05424 520 ft 208 kts 348°
2026-04-29 21:23 26.62305 -77.05768 607 ft 212 kts 342°
2026-04-29 21:23 26.63627 -77.06513 512 ft 211 kts 319°
2026-04-29 21:23 26.64583 -77.07755 408 ft 207 kts 304°
2026-04-29 21:23 26.65388 -77.09113 321 ft 208 kts 300°
2026-04-29 21:24 26.66355 -77.10464 461 ft 237 kts 321°
2026-04-29 21:24 26.67630 -77.11610 441 ft 225 kts 307°
2026-04-29 21:24 26.68129 -77.13176 423 ft 207 kts 274°
2026-04-29 21:24 26.68652 -77.14637 618 ft 202 kts 290°
2026-04-29 21:25 26.69104 -77.16211 1254 ft 226 kts 286°
2026-04-29 21:25 26.69569 -77.17986 2262 ft 253 kts 286°
2026-04-29 21:25 26.70064 -77.19871 3703 ft 260 kts 286°
2026-04-29 21:25 26.70566 -77.21790 5125 ft 267 kts 287°
2026-04-29 21:26 26.71080 -77.23764 6495 ft 273 kts 288°
2026-04-29 21:26 26.71605 -77.25790 7832 ft 278 kts 288°
2026-04-29 21:26 26.72141 -77.27874 9138 ft 284 kts 288°
2026-04-29 21:26 26.72684 -77.29993 10381 ft 290 kts 289°
2026-04-29 21:27 26.73289 -77.32318 10654 ft 331 kts 289°
2026-04-29 21:27 26.73968 -77.34944 10992 ft 363 kts 289°